Location: Bun Machan
(52.1403°N, 7.3744°W)
Time: 08:29:03
(UTC+00:00)

SWARM C - Pass Details

Date: 14 July 2020
Orbit: 430 x 434 km, 87.3° (Epoch: 04 August)

Event Time Altitude Azimuth Distance (km) Brightness Sun altitude
Rises 00:52:45 0° 356° (N) 2,424 10.1 -16.1°
Reaches altitude 10° 00:54:48 10° 355° (N) 1,550 8.6 -16.1°
Maximum altitude 00:58:09 81° 269° (W) 445 4.5 -16.1°
Enters shadow 00:59:13 40° 187° (S) 652 4.9 -16.0°
